Terminal Aerodrome Forecast
Issued by NWS Melbourne, FL

Home | Current Version | Previous Version | Text Only | Print | Product List | Glossary On
Versions: 1 2 3 4 5 6 7 8 9 10 11 12 13 14 15 16 17 18 19 20 21 22 23 24 25 26 27 28 29
812
FTUS42 KMLB 262114 AAA
TAFMCO
TAF AMD
KMCO 262114Z 2621/2718 VRB04KT P6SM VCSH FEW020 SCT040 BKN100
     FM270000 VRB03KT P6SM FEW030 SCT120 BKN250
     FM271400 23005KT P6SM SCT025=

USA.gov is the U.S. government's official web portal to all federal, state and local government web resources and services.